Punta Gorda, FL

12:33 AM EDT on May 26, 2017 (GMT -0400)
Charlotte County

Weather History for KPGD - October, 2013

Change the Weather History Date:

Thursday, October 3, 2013

  Actual Average Record
Temperature  
Mean Temperature 81 °F -  
Max Temperature 90 °F 86 °F 91 °F (2005)
Min Temperature 73 °F 69 °F 61 °F (2011)
Cooling Degree Days 16    
Growing Degree Days 31 (Base 50)    
Moisture  
Dew Point 73 °F    
Average Humidity 87    
Maximum Humidity 100    
Minimum Humidity 59    
Precipitation  
Precipitation 2.21 in - - ()
Sea Level Pressure  
Sea Level Pressure 30.04 in    
Wind  
Wind Speed 8 mph (ESE)    
Max Wind Speed 25 mph    
Max Gust Speed 30 mph    
Visibility 7 miles    
Events Fog , Rain    
Averages and records for this station are not official NWS values.
T = Trace of Precipitation, MM = Missing Value Source: NWS Daily Summary

Daily Weather History Graph

Daily Weather History Graph

Search for Another Location

Airport or City:

Trip Planner

Search our weather history database for the weather conditions in past years. The results will help you decide how hot, cold, wet, or windy it might be!

Date:

Astronomy

Oct. 03, 2013 Rise Set
Actual Time 7:21 AM EDT 7:11 PM EDT
Civil Twilight 6:58 AM EDT 7:34 PM EDT
Nautical Twilight 6:31 AM EDT 8:01 PM EDT
Astronomical Twilight 6:04 AM EDT 8:28 PM EDT
Moon 5:58 AM EDT (10/3) 6:17 PM EDT (10/3)
Length of Visible Light 12h 36m
Length of Day
11h 50m
Waning Crescent, 2% of the Moon is Illuminated
Oct 3
Waning Crescent
Oct 4
New
Oct 11
First Quarter
Oct 18
Full
Oct 26
Last Quarter

Hourly Weather History & Observations

Time (EDT) Temp. Heat Index Dew Point Humidity Pressure Visibility Wind Dir Wind Speed Gust Speed Precip Events Conditions
12:53 AM 75.9 °F - 71.1 °F 85% 30.06 in 10.0 mi East 5.8 mph - N/A   Clear
1:53 AM 75.0 °F - 72.0 °F 90% 30.04 in 10.0 mi ENE 3.5 mph - N/A   Clear
2:53 AM 73.9 °F - 72.0 °F 93% 30.02 in 10.0 mi NE 6.9 mph - N/A   Partly Cloudy
3:53 AM 73.9 °F - 72.0 °F 93% 30.00 in 10.0 mi ENE 8.1 mph - N/A   Clear
4:53 AM 73.0 °F - 71.1 °F 93% 29.98 in 10.0 mi East 8.1 mph - N/A   Clear
5:53 AM 73.0 °F - 70.0 °F 90% 29.99 in 10.0 mi ENE 5.8 mph - N/A   Clear
6:53 AM 73.0 °F - 70.0 °F 90% 30.01 in 10.0 mi East 5.8 mph - N/A   Clear
7:53 AM 73.0 °F - 70.0 °F 90% 30.03 in 10.0 mi ENE 4.6 mph - N/A   Clear
8:53 AM 75.9 °F - 70.0 °F 82% 30.06 in 10.0 mi East 6.9 mph - N/A   Clear
9:53 AM 82.0 °F 86.7 °F 72.0 °F 71% 30.08 in 10.0 mi East 11.5 mph - N/A   Clear
10:53 AM 84.0 °F 90.2 °F 73.0 °F 69% 30.08 in 10.0 mi ESE 10.4 mph - N/A   Clear
11:53 AM 86.0 °F 93.0 °F 73.0 °F 65% 30.08 in 10.0 mi East 9.2 mph - N/A   Partly Cloudy
12:53 PM 89.1 °F 98.0 °F 73.9 °F 61% 30.06 in 10.0 mi ESE 10.4 mph - N/A   Mostly Cloudy
1:53 PM 89.1 °F 97.0 °F 73.0 °F 59% 30.04 in 10.0 mi East 10.4 mph - N/A   Mostly Cloudy
2:53 PM 88.0 °F 95.6 °F 73.0 °F 61% 30.01 in 10.0 mi ENE 5.8 mph - N/A   Overcast
3:53 PM 87.1 °F 93.6 °F 72.0 °F 61% 30.00 in 10.0 mi ENE 9.2 mph - N/A   Mostly Cloudy
4:39 PM 78.8 °F - 73.4 °F 83% 30.01 in 1.8 mi South 10.4 mph - 0.13 in Rain Rain
4:53 PM 78.1 °F - 75.0 °F 90% 30.02 in 2.0 mi South 25.3 mph 29.9 mph 0.22 in Rain Rain
5:00 PM 77.0 °F - 75.2 °F 94% 30.02 in 0.8 mi South 24.2 mph 29.9 mph 0.12 in Rain Heavy Rain
5:11 PM 75.2 °F - 75.2 °F 100% 30.03 in 0.2 mi SSW 17.3 mph - 0.69 in Fog , Rain Heavy Rain
5:35 PM 73.4 °F - 73.4 °F 100% 30.04 in 0.5 mi SSW 15.0 mph - 1.62 in Fog , Rain Heavy Rain
5:50 PM 73.4 °F - 73.4 °F 100% 30.03 in 2.0 mi SSW 16.1 mph - 1.81 in Rain Rain
5:53 PM 73.9 °F - 73.0 °F 97% 30.04 in 3.0 mi SW 15.0 mph - 1.82 in Rain Rain
6:01 PM 73.4 °F - 73.4 °F 100% 30.04 in 5.0 mi SW 13.8 mph - 0.01 in Rain Light Rain
6:07 PM 73.4 °F - 73.4 °F 100% 30.04 in 1.8 mi WSW 12.7 mph - 0.10 in Rain Heavy Rain
6:17 PM 73.4 °F - 73.4 °F 100% 30.04 in 4.0 mi WSW 9.2 mph - 0.12 in Rain Light Rain
6:53 PM 73.9 °F - 73.9 °F 100% 30.04 in 6.0 mi WSW 4.6 mph - 0.14 in Rain Light Rain
7:53 PM 75.0 °F - 73.9 °F 96% 30.03 in 10.0 mi Calm Calm - 0.03 in   Overcast
8:53 PM 75.0 °F - 73.9 °F 96% 30.04 in 10.0 mi Calm Calm - N/A   Clear
9:53 PM 75.0 °F - 73.9 °F 96% 30.06 in 10.0 mi East 3.5 mph - N/A   Clear
10:53 PM 75.0 °F - 73.9 °F 96% 30.07 in 10.0 mi East 5.8 mph - N/A   Clear